SJV778 WAHI-WADL

Flight info

Callsign SJV778
Flight time N/A
Altitude 37000
Route PROGO T1 BLI
Aircraft A320/M-SDE3FGHIRWY/LB1

Departure

Time 2026-04-26 03:09
Airport Yogyakarta International Airport (WAHI)

Arrival

Time N/A
Airport Lombok International Airport (WADL)
Time Latitude Longitude Altitude Speed Heading
2026-04-26 02:51 -7.90084 110.05856 29 ft 0 kts 20°
2026-04-26 02:58 -7.90090 110.05853 29 ft 2 kts 20°
2026-04-26 02:59 -7.90104 110.05849 29 ft 2 kts 20°
2026-04-26 02:59 -7.90114 110.05845 29 ft 2 kts 20°
2026-04-26 02:59 -7.90128 110.05840 29 ft 2 kts 20°
2026-04-26 02:59 -7.90142 110.05835 29 ft 1 kts 20°
2026-04-26 03:00 -7.90156 110.05831 29 ft 2 kts 359°
2026-04-26 03:00 -7.90166 110.05832 29 ft 2 kts 347°
2026-04-26 03:00 -7.90184 110.05840 29 ft 2 kts 321°
2026-04-26 03:00 -7.90192 110.05847 29 ft 2 kts 309°
2026-04-26 03:01 -7.90199 110.05859 29 ft 1 kts 291°
2026-04-26 03:01 -7.90201 110.05865 29 ft 0 kts 290°
2026-04-26 03:03 -7.90200 110.05862 29 ft 2 kts 290°
2026-04-26 03:03 -7.90182 110.05811 29 ft 5 kts 290°
2026-04-26 03:03 -7.90186 110.05778 29 ft 6 kts 227°
2026-04-26 03:03 -7.90213 110.05764 29 ft 7 kts 201°
2026-04-26 03:04 -7.90282 110.05738 29 ft 9 kts 200°
2026-04-26 03:04 -7.90331 110.05730 29 ft 7 kts 156°
2026-04-26 03:04 -7.90360 110.05779 29 ft 9 kts 109°
2026-04-26 03:04 -7.90389 110.05861 29 ft 15 kts 110°
2026-04-26 03:05 -7.90432 110.05978 29 ft 19 kts 110°
2026-04-26 03:05 -7.90479 110.06108 29 ft 19 kts 110°
2026-04-26 03:05 -7.90511 110.06199 29 ft 19 kts 110°
2026-04-26 03:05 -7.90558 110.06328 29 ft 19 kts 110°
2026-04-26 03:06 -7.90605 110.06455 29 ft 19 kts 110°
2026-04-26 03:06 -7.90650 110.06583 29 ft 19 kts 110°
2026-04-26 03:06 -7.90696 110.06712 29 ft 19 kts 110°
2026-04-26 03:06 -7.90743 110.06840 29 ft 19 kts 110°
2026-04-26 03:07 -7.90773 110.06925 29 ft 19 kts 110°
2026-04-26 03:07 -7.90833 110.07091 29 ft 19 kts 109°
2026-04-26 03:07 -7.90869 110.07189 29 ft 12 kts 110°
2026-04-26 03:07 -7.90905 110.07234 29 ft 8 kts 167°
2026-04-26 03:08 -7.90955 110.07201 29 ft 10 kts 241°
2026-04-26 03:08 -7.90987 110.07133 29 ft 11 kts 245°
2026-04-26 03:08 -7.91012 110.07076 29 ft 5 kts 258°
2026-04-26 03:08 -7.90999 110.07029 29 ft 13 kts 291°
2026-04-26 03:09 -7.90940 110.06868 29 ft 63 kts 290°
2026-04-26 03:09 -7.90705 110.06220 30 ft 136 kts 290°
2026-04-26 03:09 -7.90210 110.04843 782 ft 157 kts 287°
2026-04-26 03:09 -7.90182 110.03795 1551 ft 159 kts 253°
2026-04-26 03:10 -7.90614 110.02747 2186 ft 163 kts 243°
2026-04-26 03:10 -7.91164 110.01652 2639 ft 180 kts 243°
2026-04-26 03:10 -7.91757 110.00457 3100 ft 197 kts 238°
2026-04-26 03:10 -7.92900 109.99487 3496 ft 222 kts 195°
2026-04-26 03:11 -7.93993 109.99411 3853 ft 235 kts 168°
2026-04-26 03:11 -7.95958 110.00604 4611 ft 258 kts 138°
2026-04-26 03:11 -7.96876 110.01453 5060 ft 268 kts 137°
2026-04-26 03:11 -7.98797 110.03153 6264 ft 274 kts 140°
2026-04-26 03:12 -8.00298 110.04369 7166 ft 277 kts 142°
2026-04-26 03:12 -8.01334 110.05168 7750 ft 279 kts 143°
2026-04-26 03:12 -8.02931 110.06361 8613 ft 283 kts 144°
2026-04-26 03:12 -8.05103 110.07936 9708 ft 287 kts 144°
2026-04-26 03:13 -8.06775 110.09130 10461 ft 292 kts 144°
2026-04-26 03:13 -8.08559 110.10395 10891 ft 309 kts 145°
2026-04-26 03:13 -8.10422 110.11712 11231 ft 327 kts 145°
2026-04-26 03:13 -8.12405 110.13103 11582 ft 344 kts 145°
2026-04-26 03:14 -8.13767 110.14057 11965 ft 350 kts 145°
2026-04-26 03:14 -8.15813 110.15490 12692 ft 353 kts 145°
2026-04-26 03:14 -8.17889 110.16948 13407 ft 356 kts 145°
2026-04-26 03:14 -8.19948 110.18394 14071 ft 359 kts 145°
2026-04-26 03:15 -8.22740 110.20356 14941 ft 364 kts 145°
2026-04-26 03:15 -8.24856 110.21844 15574 ft 367 kts 145°
2026-04-26 03:15 -8.26304 110.22862 15995 ft 370 kts 145°
2026-04-26 03:15 -8.29185 110.24889 16804 ft 374 kts 145°
2026-04-26 03:16 -8.30654 110.25922 17203 ft 376 kts 145°
2026-04-26 03:16 -8.32842 110.27461 17781 ft 380 kts 145°
2026-04-26 03:16 -8.35804 110.29545 18537 ft 384 kts 145°
2026-04-26 03:16 -8.37305 110.30602 18910 ft 386 kts 145°
2026-04-26 03:17 -8.39554 110.32185 19454 ft 389 kts 145°
2026-04-26 03:17 -8.41859 110.33807 19995 ft 393 kts 145°
2026-04-26 03:17 -8.44959 110.35990 20693 ft 397 kts 145°
2026-04-26 03:17 -8.47277 110.37622 21194 ft 400 kts 145°
2026-04-26 03:18 -8.49598 110.39257 21677 ft 403 kts 145°
2026-04-26 03:18 -8.51159 110.40356 21993 ft 405 kts 145°
2026-04-26 03:18 -8.54309 110.42575 22612 ft 408 kts 145°
2026-04-26 03:18 -8.56671 110.44240 23055 ft 411 kts 145°
2026-04-26 03:19 -8.58256 110.45357 23344 ft 413 kts 145°
2026-04-26 03:19 -8.61496 110.47640 23920 ft 417 kts 145°
2026-04-26 03:19 -8.63085 110.48760 24194 ft 418 kts 145°
2026-04-26 03:19 -8.65537 110.50489 24607 ft 421 kts 145°
2026-04-26 03:20 -8.68794 110.52785 25135 ft 424 kts 145°
2026-04-26 03:20 -8.71288 110.54543 25527 ft 427 kts 145°
2026-04-26 03:20 -8.73774 110.56297 25909 ft 430 kts 145°
2026-04-26 03:20 -8.75446 110.57475 26161 ft 431 kts 145°
2026-04-26 03:21 -8.77963 110.59251 26532 ft 434 kts 145°
2026-04-26 03:21 -8.81301 110.61605 27010 ft 437 kts 145°
2026-04-26 03:21 -8.83879 110.63422 27371 ft 439 kts 145°
2026-04-26 03:21 -8.86395 110.65197 27710 ft 442 kts 145°
2026-04-26 03:22 -8.88094 110.66399 27935 ft 443 kts 145°
2026-04-26 03:22 -8.90087 110.67812 28198 ft 445 kts 145°
2026-04-26 03:22 -8.93503 110.70230 28637 ft 448 kts 145°
2026-04-26 03:22 -8.96065 110.72041 28955 ft 450 kts 145°
2026-04-26 03:23 -8.98118 110.73580 29193 ft 452 kts 139°
2026-04-26 03:23 -8.99616 110.75102 29397 ft 453 kts 130°
2026-04-26 03:23 -9.01799 110.78777 29927 ft 451 kts 111°
2026-04-26 03:23 -9.02433 110.80838 30204 ft 450 kts 102°
2026-04-26 03:24 -9.02778 110.84015 30603 ft 449 kts 91°
2026-04-26 03:24 -9.02805 110.87233 31023 ft 448 kts 90°
2026-04-26 03:24 -9.02776 110.91444 31531 ft 447 kts 89°
2026-04-26 03:24 -9.02758 110.94639 31904 ft 446 kts 90°
2026-04-26 03:25 -9.02751 110.97848 32274 ft 446 kts 90°
2026-04-26 03:25 -9.02750 110.99963 32515 ft 445 kts 90°
2026-04-26 03:25 -9.02754 111.03132 32870 ft 444 kts 90°
2026-04-26 03:25 -9.02764 111.07360 33332 ft 444 kts 90°
2026-04-26 03:26 -9.02774 111.10518 33667 ft 443 kts 90°
2026-04-26 03:26 -9.02781 111.12669 33891 ft 442 kts 90°
2026-04-26 03:26 -9.02795 111.16852 34316 ft 442 kts 90°
2026-04-26 03:26 -9.02805 111.19964 34622 ft 441 kts 90°
2026-04-26 03:27 -9.02816 111.23139 34927 ft 440 kts 90°
2026-04-26 03:27 -9.02823 111.25204 35120 ft 440 kts 90°
2026-04-26 03:27 -9.02833 111.28329 35387 ft 440 kts 90°
2026-04-26 03:27 -9.02845 111.32490 35675 ft 441 kts 90°
2026-04-26 03:28 -9.02852 111.34568 35806 ft 442 kts 90°
2026-04-26 03:28 -9.02861 111.37704 35999 ft 443 kts 90°
2026-04-26 03:28 -9.02869 111.40848 36188 ft 444 kts 90°
2026-04-26 03:28 -9.02878 111.44038 36367 ft 444 kts 90°
2026-04-26 03:29 -9.02886 111.47194 36532 ft 445 kts 90°
2026-04-26 03:29 -9.02894 111.50389 36688 ft 446 kts 90°
2026-04-26 03:29 -9.02902 111.53561 36837 ft 447 kts 90°
2026-04-26 03:29 -9.02910 111.56776 36978 ft 448 kts 90°
2026-04-26 03:30 -9.02924 111.63024 36999 ft 450 kts 90°
2026-04-26 03:30 -9.02937 111.69345 37003 ft 450 kts 90°
2026-04-26 03:31 -9.02950 111.75668 37004 ft 450 kts 90°
2026-04-26 03:31 -9.02963 111.83103 37004 ft 450 kts 90°
2026-04-26 03:32 -9.02972 111.88476 37004 ft 450 kts 90°
2026-04-26 03:32 -9.02981 111.94864 37004 ft 450 kts 90°
2026-04-26 03:33 -9.02991 112.02084 37004 ft 450 kts 90°
2026-04-26 03:33 -9.02998 112.08546 37004 ft 450 kts 90°
2026-04-26 03:34 -9.03004 112.14965 37004 ft 450 kts 90°
2026-04-26 03:34 -9.03009 112.20340 37004 ft 450 kts 90°
2026-04-26 03:35 -9.03013 112.26741 37004 ft 450 kts 90°
2026-04-26 03:35 -9.03017 112.33126 37004 ft 450 kts 90°
2026-04-26 03:36 -9.03020 112.39497 37004 ft 450 kts 90°
2026-04-26 03:36 -9.03023 112.45866 37004 ft 450 kts 90°
2026-04-26 03:37 -9.03026 112.52261 37004 ft 450 kts 90°
2026-04-26 03:37 -9.03030 112.58678 37004 ft 450 kts 90°
2026-04-26 03:38 -9.03035 112.65070 37004 ft 450 kts 90°
2026-04-26 03:38 -9.03019 112.71075 37004 ft 450 kts 89°
2026-04-26 03:39 -9.02922 112.77573 37004 ft 450 kts 89°
2026-04-26 03:39 -9.02815 112.85072 37004 ft 450 kts 89°
2026-04-26 03:40 -9.02746 112.90402 37004 ft 450 kts 89°
2026-04-26 03:40 -9.02666 112.96735 37004 ft 450 kts 89°
2026-04-26 03:41 -9.02585 113.03109 37004 ft 450 kts 89°
2026-04-26 03:41 -9.02489 113.10638 37004 ft 450 kts 89°
2026-04-26 03:42 -9.02420 113.15955 37004 ft 450 kts 89°
2026-04-26 03:42 -9.02337 113.22331 37004 ft 450 kts 89°
2026-04-26 03:43 -9.02253 113.28630 37004 ft 450 kts 89°
2026-04-26 03:43 -9.02168 113.34970 37004 ft 450 kts 89°
2026-04-26 03:44 -9.02081 113.41396 37004 ft 450 kts 89°
2026-04-26 03:44 -9.01993 113.47780 37004 ft 450 kts 89°
2026-04-26 03:45 -9.01904 113.54234 37004 ft 450 kts 89°
2026-04-26 03:45 -9.01814 113.60647 37004 ft 450 kts 89°
2026-04-26 03:46 -9.01726 113.66857 37004 ft 450 kts 89°
2026-04-26 03:47 -9.01591 113.76443 37004 ft 450 kts 89°
2026-04-26 03:47 -9.01498 113.82847 37004 ft 450 kts 89°
2026-04-26 03:48 -9.01405 113.89300 37004 ft 450 kts 89°
2026-04-26 03:48 -9.01313 113.95550 37004 ft 450 kts 89°
2026-04-26 03:49 -9.01221 114.01866 37004 ft 450 kts 89°
2026-04-26 03:49 -9.01131 114.08253 37004 ft 450 kts 89°
2026-04-26 03:50 -9.01036 114.14595 37004 ft 450 kts 89°
2026-04-26 03:50 -9.00721 114.21014 37003 ft 450 kts 84°
2026-04-26 03:51 -8.99712 114.27264 36819 ft 451 kts 77°
2026-04-26 03:51 -8.98648 114.31421 36137 ft 448 kts 74°
2026-04-26 03:51 -8.98073 114.33488 35729 ft 448 kts 74°
2026-04-26 03:51 -8.96931 114.37566 34853 ft 449 kts 74°
2026-04-26 03:52 -8.96357 114.39620 34403 ft 449 kts 74°
2026-04-26 03:52 -8.95529 114.42586 33749 ft 450 kts 74°
2026-04-26 03:52 -8.94643 114.45770 33042 ft 450 kts 74°
2026-04-26 03:52 -8.93789 114.48840 32350 ft 451 kts 74°
2026-04-26 03:53 -8.92934 114.51917 31648 ft 452 kts 74°
2026-04-26 03:53 -8.92078 114.54999 30937 ft 453 kts 74°
2026-04-26 03:53 -8.91225 114.58067 30214 ft 454 kts 74°
2026-04-26 03:53 -8.90363 114.61169 29470 ft 455 kts 74°
2026-04-26 03:54 -8.89495 114.64293 28767 ft 454 kts 74°
2026-04-26 03:54 -8.88357 114.68398 28151 ft 446 kts 74°
2026-04-26 03:54 -8.87784 114.70471 27821 ft 443 kts 74°
2026-04-26 03:54 -8.86960 114.73450 27341 ft 438 kts 74°
2026-04-26 03:55 -8.85861 114.77414 26691 ft 432 kts 74°
2026-04-26 03:55 -8.85042 114.80361 26202 ft 428 kts 74°
2026-04-26 03:55 -8.84505 114.82296 25880 ft 425 kts 74°
2026-04-26 03:55 -8.83701 114.85185 25397 ft 421 kts 74°
2026-04-26 03:56 -8.82903 114.88055 24912 ft 417 kts 74°
2026-04-26 03:56 -8.82123 114.90855 24419 ft 414 kts 73°
2026-04-26 03:56 -8.81232 114.93642 23836 ft 413 kts 70°
2026-04-26 03:56 -8.79951 114.97312 22992 ft 413 kts 73°
2026-04-26 03:57 -8.79484 114.99200 22568 ft 413 kts 78°
2026-04-26 03:57 -8.78829 115.03018 21705 ft 413 kts 81°
2026-04-26 03:57 -8.78380 115.05881 21055 ft 413 kts 81°
2026-04-26 03:57 -8.77920 115.08736 20404 ft 413 kts 81°
2026-04-26 03:58 -8.77445 115.11595 19752 ft 413 kts 80°
2026-04-26 03:58 -8.77071 115.13795 19250 ft 413 kts 80°
2026-04-26 03:58 -8.76589 115.16596 18610 ft 412 kts 80°
2026-04-26 03:58 -8.76250 115.18549 18162 ft 412 kts 80°
2026-04-26 03:59 -8.75583 115.22371 17488 ft 405 kts 80°
2026-04-26 03:59 -8.75086 115.25201 17040 ft 399 kts 80°
2026-04-26 03:59 -8.74603 115.27952 16611 ft 393 kts 80°
2026-04-26 03:59 -8.74125 115.30672 16161 ft 388 kts 80°
2026-04-26 04:00 -8.73650 115.33370 15653 ft 385 kts 80°
2026-04-26 04:00 -8.73333 115.35167 15307 ft 383 kts 80°
2026-04-26 04:00 -8.72867 115.37811 14803 ft 381 kts 80°
2026-04-26 04:00 -8.72383 115.40550 14282 ft 378 kts 80°
2026-04-26 04:01 -8.71917 115.43191 13778 ft 375 kts 80°
2026-04-26 04:01 -8.71462 115.45773 13216 ft 363 kts 80°
2026-04-26 04:01 -8.71022 115.48259 12351 ft 361 kts 80°
2026-04-26 04:01 -8.70580 115.50764 11893 ft 359 kts 80°
2026-04-26 04:02 -8.70139 115.53257 11448 ft 356 kts 80°
2026-04-26 04:02 -8.69698 115.55751 11000 ft 354 kts 80°
2026-04-26 04:02 -8.69262 115.58218 10556 ft 352 kts 80°
2026-04-26 04:02 -8.68822 115.60701 10271 ft 344 kts 80°
2026-04-26 04:03 -8.68408 115.63039 10193 ft 330 kts 80°
2026-04-26 04:03 -8.67901 115.65906 10092 ft 314 kts 80°
2026-04-26 04:03 -8.67643 115.67371 10045 ft 306 kts 80°
2026-04-26 04:03 -8.67270 115.69489 9814 ft 300 kts 80°
2026-04-26 04:04 -8.66903 115.71571 9550 ft 295 kts 80°
2026-04-26 04:04 -8.66549 115.73571 9156 ft 282 kts 80°
2026-04-26 04:04 -8.66202 115.75533 8798 ft 281 kts 80°
2026-04-26 04:04 -8.65848 115.77529 8458 ft 281 kts 80°
2026-04-26 04:05 -8.65385 115.80135 8033 ft 281 kts 80°
2026-04-26 04:05 -8.65156 115.81428 7825 ft 280 kts 80°
2026-04-26 04:05 -8.64804 115.83408 7509 ft 279 kts 80°
2026-04-26 04:05 -8.64456 115.85371 7196 ft 279 kts 80°
2026-04-26 04:06 -8.64108 115.87328 6885 ft 278 kts 80°
2026-04-26 04:06 -8.63763 115.89267 6576 ft 277 kts 80°
2026-04-26 04:06 -8.63421 115.91196 6269 ft 276 kts 80°
2026-04-26 04:06 -8.63078 115.93124 5962 ft 275 kts 80°
2026-04-26 04:07 -8.62738 115.95037 5657 ft 264 kts 80°
2026-04-26 04:07 -8.62317 115.97404 5286 ft 247 kts 80°
2026-04-26 04:07 -8.62007 115.99146 5007 ft 246 kts 80°
2026-04-26 04:07 -8.61718 116.00773 4780 ft 240 kts 80°
2026-04-26 04:08 -8.61524 116.01862 4771 ft 230 kts 80°
2026-04-26 04:08 -8.61250 116.03400 4749 ft 219 kts 80°
2026-04-26 04:08 -8.60995 116.04829 4719 ft 208 kts 80°
2026-04-26 04:08 -8.60667 116.06664 4678 ft 201 kts 80°
2026-04-26 04:09 -8.60551 116.08012 4599 ft 201 kts 101°
2026-04-26 04:09 -8.60846 116.08907 4523 ft 200 kts 118°
2026-04-26 04:09 -8.61566 116.10027 4429 ft 196 kts 127°
2026-04-26 04:09 -8.62417 116.11078 4207 ft 192 kts 130°
2026-04-26 04:10 -8.63567 116.12440 3853 ft 189 kts 130°
2026-04-26 04:10 -8.64414 116.13463 3590 ft 187 kts 130°
2026-04-26 04:10 -8.65236 116.14471 3334 ft 185 kts 129°
2026-04-26 04:10 -8.66019 116.15444 3090 ft 183 kts 129°
2026-04-26 04:11 -8.66843 116.16473 2832 ft 180 kts 129°
2026-04-26 04:11 -8.67379 116.17141 2666 ft 179 kts 129°
2026-04-26 04:11 -8.68154 116.18108 2429 ft 168 kts 129°
2026-04-26 04:11 -8.69104 116.19294 2145 ft 150 kts 129°
2026-04-26 04:12 -8.69762 116.20113 1925 ft 142 kts 129°
2026-04-26 04:12 -8.70390 116.20895 1734 ft 142 kts 129°
2026-04-26 04:12 -8.70617 116.21178 1664 ft 141 kts 129°
2026-04-26 04:12 -8.71041 116.21706 1536 ft 141 kts 129°